JCSAT 17

导读

JCSAT 17是由日本卫星运营商SKY Perfect JSAT Corporation委托洛克希德·马丁公司研制的商业通信卫星,这也是洛马为该公司制造的第8颗卫星。它基于最新LM2100平台建造,于2020年2月18日发射,主要为日本及周边区域提供移动卫星宽带通信服务,搭载S、C、Ku波段转发器,可灵活调整带宽适配不同需求。

基本信息
目录编号:
45245
目录名称:
JCSAT 17
国际标识:
2020-013A
轨道中心:
EARTH
卫星名称:
JCSAT 17
卫星全名:
--
卫星状态:
在轨 (已飞行2315 天)
发射日期:
2020-02-18 UTC
国别 :
日本 (JP)
星等 :
--
轨道信息
数据来源 国际轨道数据 AOE轨道数据
星历时间 2026-06-20T19:01:13+0800
23小时前
查看轨道信息
2026-06-21T16:00:00+0800
2小时前
查看轨道信息
半长轴 42165.093km 42164.896km
偏心率 0.0002657 0.0002777
轨道倾角 5.392° 5.390°
近地点辐角 90.150° 88.575°
升交点赤经 356.915° 356.926°
平近点角 122.918° 80.037°
近地点 35775.752km 35775.049km
远地点 35798.16km 35798.469km
周期 1436.115分钟 1436.105分钟
每日圈数 1.002705 1.002712
详细信息
使用方式:
暂无
2D轨道图
3D轨道图
轨道高度分析图
轨道倾角分析图
轨道综合分析图
查看轨道综合分析图